Time,TemperatureF,DewpointF,PressureIn,WindDirection,WindDirectionDegrees,WindSpeedMPH,WindSpeedGustMPH,Humidity,HourlyPrecipIn,Conditions,Clouds,dailyrainin,SoftwareType,DateUTC
2013-03-13 00:08:00,25.0,22.0,30.17,NNW,330,10.0,16.0,88,0.00,,,0.01,weatherlink.com 1.10,2013-03-13 05:08:00,
2013-03-13 00:23:00,25.0,22.0,30.17,NNW,330,6.0,14.0,87,0.00,,,0.01,weatherlink.com 1.10,2013-03-13 05:23:00,
2013-03-13 00:38:00,24.8,21.0,30.17,NNW,342,9.0,16.0,86,0.00,,,0.01,weatherlink.com 1.10,2013-03-13 05:38:00,
2013-03-13 00:53:00,24.7,21.0,30.17,NW,321,6.0,11.0,87,0.00,,,0.01,weatherlink.com 1.10,2013-03-13 05:53:00,
2013-03-13 01:08:00,24.8,22.0,30.17,NW,324,4.0,11.0,87,0.00,,,0.01,weatherlink.com 1.10,2013-03-13 06:08:00,
2013-03-13 01:23:00,24.9,21.0,30.17,NW,325,9.0,16.0,86,0.00,,,0.01,weatherlink.com 1.10,2013-03-13 06:23:00,
2013-03-13 01:38:00,25.1,21.0,30.18,NW,314,5.0,14.0,85,0.00,,,0.01,weatherlink.com 1.10,2013-03-13 06:38:00,
2013-03-13 01:53:00,25.0,21.0,30.18,NNW,341,6.0,12.0,83,0.00,,,0.01,weatherlink.com 1.10,2013-03-13 06:53:00,
2013-03-13 02:09:00,24.7,19.0,30.18,NNW,327,6.0,22.0,80,0.00,,,0.01,weatherlink.com 1.10,2013-03-13 07:09:00,
2013-03-13 02:24:00,24.0,19.0,30.19,NW,315,8.0,13.0,81,0.00,,,0.01,weatherlink.com 1.10,2013-03-13 07:24:00,
2013-03-13 02:39:00,23.8,19.0,30.19,WNW,296,6.0,13.0,81,0.00,,,0.00,weatherlink.com 1.10,2013-03-13 07:39:00,
2013-03-13 02:54:00,23.5,19.0,30.19,NW,323,7.0,13.0,81,0.00,,,0.00,weatherlink.com 1.10,2013-03-13 07:54:00,
2013-03-13 03:09:00,23.2,18.0,30.20,North,5,6.0,15.0,81,0.00,,,0.00,weatherlink.com 1.10,2013-03-13 08:09:00,
2013-03-13 03:24:00,23.1,18.0,30.20,NNW,344,9.0,14.0,81,0.00,,,0.00,weatherlink.com 1.10,2013-03-13 08:24:00,
2013-03-13 03:39:00,22.9,18.0,30.20,NW,323,7.0,15.0,81,0.00,,,0.00,weatherlink.com 1.10,2013-03-13 08:39:00,
2013-03-13 03:54:00,22.4,18.0,30.20,NW,311,7.0,8.0,82,0.00,,,0.00,weatherlink.com 1.10,2013-03-13 08:54:00,
2013-03-13 04:09:00,22.5,18.0,30.20,North,355,6.0,11.0,83,0.00,,,0.00,weatherlink.com 1.10,2013-03-13 09:09:00,
2013-03-13 04:24:00,22.5,18.0,30.21,NNW,330,6.0,12.0,83,0.00,,,0.00,weatherlink.com 1.10,2013-03-13 09:24:00,
2013-03-13 04:39:00,22.5,18.0,30.22,NW,311,5.0,13.0,84,0.00,,,0.00,weatherlink.com 1.10,2013-03-13 09:39:00,
2013-03-13 04:54:00,22.4,18.0,30.22,NW,311,5.0,12.0,84,0.00,,,0.00,weatherlink.com 1.10,2013-03-13 09:54:00,
2013-03-13 05:09:00,22.2,18.0,30.23,NW,325,6.0,12.0,84,0.00,,,0.00,weatherlink.com 1.10,2013-03-13 10:09:00,
2013-03-13 05:25:00,22.1,18.0,30.23,NW,311,6.0,13.0,83,0.00,,,0.00,weatherlink.com 1.10,2013-03-13 10:25:00,
2013-03-13 05:40:00,22.0,18.0,30.24,NNW,329,8.0,12.0,84,0.00,,,0.00,weatherlink.com 1.10,2013-03-13 10:40:00,
2013-03-13 05:55:00,21.8,18.0,30.25,NNW,345,6.0,10.0,84,0.00,,,0.00,weatherlink.com 1.10,2013-03-13 10:55:00,
2013-03-13 06:10:00,21.7,18.0,30.25,NNW,331,8.0,13.0,84,0.00,,,0.00,weatherlink.com 1.10,2013-03-13 11:10:00,
2013-03-13 06:25:00,21.7,18.0,30.25,NNW,333,5.0,14.0,84,0.00,,,0.00,weatherlink.com 1.10,2013-03-13 11:25:00,
2013-03-13 06:40:00,21.6,18.0,30.26,NNW,345,7.0,13.0,84,0.00,,,0.00,weatherlink.com 1.10,2013-03-13 11:40:00,
2013-03-13 06:55:00,21.6,18.0,30.27,NNW,331,7.0,16.0,84,0.00,,,0.00,weatherlink.com 1.10,2013-03-13 11:55:00,
2013-03-13 07:10:00,21.5,17.0,30.28,NNW,333,6.0,14.0,84,0.00,,,0.00,weatherlink.com 1.10,2013-03-13 12:10:00,
2013-03-13 07:25:00,21.5,17.0,30.28,NNW,336,5.0,13.0,84,0.00,,,0.00,weatherlink.com 1.10,2013-03-13 12:25:00,
2013-03-13 07:40:00,21.7,18.0,30.29,NNW,329,8.0,14.0,84,0.00,,,0.00,weatherlink.com 1.10,2013-03-13 12:40:00,
2013-03-13 07:55:00,22.1,18.0,30.30,North,5,6.0,16.0,84,0.00,,,0.00,weatherlink.com 1.10,2013-03-13 12:55:00,
2013-03-13 08:10:00,22.4,18.0,30.30,NNW,342,8.0,14.0,83,0.00,,,0.00,weatherlink.com 1.10,2013-03-13 13:10:00,
2013-03-13 08:25:00,23.0,19.0,30.31,NW,322,8.0,13.0,83,0.00,,,0.00,weatherlink.com 1.10,2013-03-13 13:25:00,
2013-03-13 08:40:00,23.5,19.0,30.32,NNW,346,6.0,14.0,82,0.00,,,0.00,weatherlink.com 1.10,2013-03-13 13:40:00,
2013-03-13 08:56:00,23.9,19.0,30.33,NW,313,5.0,13.0,81,0.00,,,0.00,weatherlink.com 1.10,2013-03-13 13:56:00,
2013-03-13 09:11:00,23.7,19.0,30.33,NNW,335,8.0,15.0,81,0.00,,,0.00,weatherlink.com 1.10,2013-03-13 14:11:00,
2013-03-13 09:41:00,24.5,19.0,30.34,NNW,346,7.0,14.0,79,0.00,,,0.00,weatherlink.com 1.10,2013-03-13 14:41:00,
2013-03-13 09:56:00,24.7,19.0,30.35,North,355,7.0,14.0,78,0.00,,,0.00,weatherlink.com 1.10,2013-03-13 14:56:00,
2013-03-13 10:56:00,27.1,20.0,30.37,North,355,2.0,12.0,74,0.00,,,0.00,weatherlink.com 1.10,2013-03-13 15:56:00,
2013-03-13 11:11:00,28.2,21.0,30.37,North,355,3.0,12.0,73,0.00,,,0.00,weatherlink.com 1.10,2013-03-13 16:11:00,
2013-03-13 11:27:00,28.6,21.0,30.38,NE,34,3.0,12.0,73,0.00,,,0.00,weatherlink.com 1.10,2013-03-13 16:27:00,
2013-03-13 11:42:00,29.3,21.0,30.39,NW,323,8.0,14.0,71,0.00,,,0.00,weatherlink.com 1.10,2013-03-13 16:42:00,
2013-03-13 11:57:00,29.7,22.0,30.39,NNW,329,4.0,15.0,72,0.00,,,0.00,weatherlink.com 1.10,2013-03-13 16:57:00,
2013-03-13 12:12:00,30.0,21.0,30.39,NW,315,6.0,14.0,70,0.00,,,0.00,weatherlink.com 1.10,2013-03-13 17:12:00,
2013-03-13 12:27:00,30.6,21.0,30.39,NW,325,4.0,13.0,68,0.00,,,0.00,weatherlink.com 1.10,2013-03-13 17:27:00,
2013-03-13 12:57:00,31.5,22.0,30.40,NNW,333,11.0,14.0,68,0.00,,,0.00,weatherlink.com 1.10,2013-03-13 17:57:00,
2013-03-13 13:12:00,31.6,21.0,30.40,NNW,327,8.0,15.0,64,0.00,,,0.00,weatherlink.com 1.10,2013-03-13 18:12:00,
2013-03-13 13:27:00,32.3,22.0,30.40,NW,313,7.0,15.0,66,0.00,,,0.00,weatherlink.com 1.10,2013-03-13 18:27:00,
2013-03-13 13:42:00,32.3,21.0,30.40,NW,315,7.0,15.0,63,0.00,,,0.00,weatherlink.com 1.10,2013-03-13 18:42:00,
2013-03-13 13:57:00,32.8,21.0,30.39,NNW,331,11.0,17.0,61,0.00,,,0.00,weatherlink.com 1.10,2013-03-13 18:57:00,
2013-03-13 14:12:00,33.0,20.0,30.39,NW,321,14.0,20.0,58,0.00,,,0.00,weatherlink.com 1.10,2013-03-13 19:12:00,
2013-03-13 14:28:00,33.4,21.0,30.39,North,355,5.0,16.0,60,0.00,,,0.00,weatherlink.com 1.10,2013-03-13 19:28:00,
2013-03-13 14:42:00,34.3,20.0,30.39,North,349,3.0,14.0,56,0.00,,,0.00,weatherlink.com 1.10,2013-03-13 19:42:00,
2013-03-13 14:58:00,34.6,19.0,30.39,NW,315,7.0,14.0,54,0.00,,,0.00,weatherlink.com 1.10,2013-03-13 19:58:00,
2013-03-13 15:13:00,34.5,19.0,30.39,NNW,342,8.0,15.0,54,0.00,,,0.00,weatherlink.com 1.10,2013-03-13 20:13:00,
2013-03-13 15:28:00,34.9,20.0,30.39,WNW,299,9.0,15.0,55,0.00,,,0.00,weatherlink.com 1.10,2013-03-13 20:28:00,
2013-03-13 15:43:00,34.9,19.0,30.39,North,355,11.0,14.0,53,0.00,,,0.00,weatherlink.com 1.10,2013-03-13 20:43:00,
2013-03-13 15:58:00,35.3,20.0,30.39,NE,36,3.0,11.0,53,0.00,,,0.00,weatherlink.com 1.10,2013-03-13 20:58:00,
2013-03-13 16:13:00,35.4,19.0,30.39,NW,325,5.0,12.0,51,0.00,,,0.00,weatherlink.com 1.10,2013-03-13 21:13:00,
2013-03-13 16:28:00,35.3,19.0,30.40,NW,308,10.0,16.0,51,0.00,,,0.00,weatherlink.com 1.10,2013-03-13 21:28:00,
2013-03-13 16:43:00,35.4,19.0,30.40,NW,304,8.0,12.0,51,0.00,,,0.00,weatherlink.com 1.10,2013-03-13 21:43:00,
2013-03-13 16:58:00,34.9,18.0,30.40,WNW,288,7.0,15.0,50,0.00,,,0.00,weatherlink.com 1.10,2013-03-13 21:58:00,
2013-03-13 17:13:00,34.9,19.0,30.40,North,355,4.0,13.0,53,0.00,,,0.00,weatherlink.com 1.10,2013-03-13 22:13:00,
2013-03-13 17:28:00,34.8,20.0,30.40,NNW,327,6.0,14.0,55,0.00,,,0.00,weatherlink.com 1.10,2013-03-13 22:28:00,
2013-03-13 17:43:00,34.4,20.0,30.41,NW,321,6.0,12.0,56,0.00,,,0.00,weatherlink.com 1.10,2013-03-13 22:43:00,
2013-03-13 17:58:00,33.9,19.0,30.41,NNW,346,4.0,15.0,54,0.00,,,0.00,weatherlink.com 1.10,2013-03-13 22:58:00,
2013-03-13 18:14:00,33.5,19.0,30.41,NW,323,6.0,12.0,56,0.00,,,0.00,weatherlink.com 1.10,2013-03-13 23:14:00,
2013-03-13 18:29:00,33.1,18.0,30.41,NNW,331,3.0,10.0,55,0.00,,,0.00,weatherlink.com 1.10,2013-03-13 23:29:00,
2013-03-13 18:44:00,32.5,19.0,30.41,NNW,333,6.0,9.0,57,0.00,,,0.00,weatherlink.com 1.10,2013-03-13 23:44:00,
2013-03-13 18:59:00,31.7,19.0,30.41,NW,315,7.0,9.0,60,0.00,,,0.00,weatherlink.com 1.10,2013-03-13 23:59:00,
2013-03-13 19:14:00,31.3,20.0,30.41,WNW,303,3.0,6.0,64,0.00,,,0.00,weatherlink.com 1.10,2013-03-14 00:14:00,
2013-03-13 19:29:00,30.7,20.0,30.40,NW,306,1.0,3.0,65,0.00,,,0.00,weatherlink.com 1.10,2013-03-14 00:29:00,
2013-03-13 19:44:00,30.2,20.0,30.40,NW,316,3.0,4.0,66,0.00,,,0.00,weatherlink.com 1.10,2013-03-14 00:44:00,
2013-03-13 19:59:00,30.0,20.0,30.41,NW,326,1.0,5.0,67,0.00,,,0.00,weatherlink.com 1.10,2013-03-14 00:59:00,
2013-03-13 20:14:00,29.6,21.0,30.41,NW,311,2.0,2.0,70,0.00,,,0.00,weatherlink.com 1.10,2013-03-14 01:14:00,
2013-03-13 20:29:00,29.5,21.0,30.41,NW,315,0.0,4.0,71,0.00,,,0.00,weatherlink.com 1.10,2013-03-14 01:29:00,
2013-03-13 20:44:00,29.3,21.0,30.41,NW,304,3.0,5.0,71,0.00,,,0.00,weatherlink.com 1.10,2013-03-14 01:44:00,
2013-03-13 20:59:00,28.8,21.0,30.41,NW,315,2.0,4.0,73,0.00,,,0.00,weatherlink.com 1.10,2013-03-14 01:59:00,
2013-03-13 21:14:00,28.6,21.0,30.41,WNW,301,2.0,4.0,72,0.00,,,0.00,weatherlink.com 1.10,2013-03-14 02:14:00,
2013-03-13 21:30:00,28.3,21.0,30.41,NW,306,1.0,4.0,74,0.00,,,0.00,weatherlink.com 1.10,2013-03-14 02:30:00,
2013-03-13 21:45:00,27.9,21.0,30.41,NW,316,2.0,4.0,75,0.00,,,0.00,weatherlink.com 1.10,2013-03-14 02:45:00,
2013-03-13 22:00:00,27.6,21.0,30.41,NNW,334,1.0,3.0,77,0.00,,,0.00,weatherlink.com 1.10,2013-03-14 03:00:00,
2013-03-13 22:15:00,27.3,21.0,30.41,NW,307,1.0,5.0,76,0.00,,,0.00,weatherlink.com 1.10,2013-03-14 03:15:00,
2013-03-13 22:30:00,27.1,20.0,30.41,NW,309,2.0,4.0,76,0.00,,,0.00,weatherlink.com 1.10,2013-03-14 03:30:00,
2013-03-13 22:45:00,27.1,20.0,30.41,NNW,330,3.0,4.0,75,0.00,,,0.00,weatherlink.com 1.10,2013-03-14 03:45:00,
2013-03-13 23:00:00,27.0,20.0,30.41,NW,313,1.0,4.0,75,0.00,,,0.00,weatherlink.com 1.10,2013-03-14 04:00:00,
2013-03-13 23:15:00,26.6,20.0,30.41,NW,317,1.0,2.0,76,0.00,,,0.00,weatherlink.com 1.10,2013-03-14 04:15:00,
2013-03-13 23:30:00,26.5,20.0,30.41,NW,316,2.0,4.0,76,0.00,,,0.00,weatherlink.com 1.10,2013-03-14 04:30:00,